Weather History for KMYL - November, 2012

Change the Weather History Date:

Monday, November 12, 2012

  Actual Average Record
Temperature  
Mean Temperature 24 °F 30 °F  
Max Temperature 29 °F 39 °F 63 °F (1999)
Min Temperature 18 °F 21 °F -5 °F (1938)
Degree Days  
Heating Degree Days 41 35  
Month to date heating degree days 374 389  
Since 1 July heating degree days 1463 1932  
Cooling Degree Days 0 0  
Month to date cooling degree days 0 0  
Year to date cooling degree days 172 25  
Moisture  
Dew Point 23 °F    
Average Humidity 85    
Maximum Humidity 92    
Minimum Humidity 77    
Precipitation  
Precipitation 0.06 in 0.11 in 1.10 in (1960)
Month to date precipitation 0.48 1.24  
Year to date precipitation 22.01 16.56  
Sea Level Pressure  
Sea Level Pressure 30.34 in    
Wind  
Wind Speed 1 mph (SSE)    
Max Wind Speed 12 mph    
Max Gust Speed 15 mph    
Visibility 5 miles    
Events Snow    
T = Trace of Precipitation, MM = Missing Value Source: NWS Daily Summary

Daily Weather History Graph

Daily Weather History Graph

Search for Another Location

Airport or City:

Trip Planner

Search our weather history database for the weather conditions in past years. The results will help you decide how hot, cold, wet, or windy it might be!

Date:

Astronomy

Nov. 12, 2012 Rise Set
Actual Time 7:38 AM MST 5:18 PM MST
Civil Twilight 7:06 AM MST 5:49 PM MST
Nautical Twilight 6:31 AM MST 6:25 PM MST
Astronomical Twilight 5:57 AM MST 6:59 PM MST
Moon 6:07 AM MST (11/12) 4:27 PM MST (11/12)
Length of Visible Light 10h 42m
Length of Day
9h 39m
Waning Crescent, 2% of the Moon is Illuminated
Nov 12
Waning Crescent
Nov 13
New
Nov 20
First Quarter
Nov 28
Full
Dec 6
Last Quarter

Hourly Weather History & Observations

Time (MST) Temp. Windchill Dew Point Humidity Pressure Visibility Wind Dir Wind Speed Gust Speed Precip Events Conditions
12:51 AM 19.9 °F 14.9 °F 15.1 °F 81% 30.45 in 10.0 mi NE 3.5 mph - N/A   Overcast
1:14 AM 19.4 °F - 15.8 °F 86% 30.30 in 10.0 mi Calm Calm - N/A   Scattered Clouds
1:51 AM 18.0 °F - 14.0 °F 84% 30.45 in 10.0 mi Calm Calm - N/A   Clear
2:51 AM 19.0 °F - 15.1 °F 85% 30.45 in 10.0 mi Calm Calm - N/A   Overcast
3:51 AM 19.9 °F - 16.0 °F 85% 30.43 in 10.0 mi Calm Calm - N/A   Overcast
4:51 AM 21.0 °F - 17.1 °F 85% 30.43 in 10.0 mi Calm Calm - N/A   Overcast
5:51 AM 23.0 °F - 17.1 °F 78% 30.43 in 10.0 mi Calm Calm - N/A   Overcast
6:51 AM 23.0 °F - 18.0 °F 81% 30.43 in 10.0 mi Calm Calm - 0.00 in   Overcast
7:51 AM 23.0 °F - 19.0 °F 85% 30.45 in 10.0 mi Calm Calm - N/A   Overcast
8:51 AM 25.0 °F - 19.0 °F 78% 30.45 in 10.0 mi Calm Calm - N/A   Overcast
9:49 AM 24.8 °F - 19.4 °F 80% 30.31 in 2.0 mi Calm Calm - 0.00 in Snow Light Snow
9:51 AM 25.0 °F - 19.9 °F 81% 30.45 in 2.0 mi Calm Calm - 0.00 in Snow Light Snow
10:01 AM 26.6 °F - 21.2 °F 80% 30.31 in 4.0 mi Calm Calm - 0.00 in Snow Light Snow
10:51 AM 27.0 °F - 19.9 °F 75% 30.43 in 5.0 mi Calm Calm - 0.00 in   Haze
11:51 AM 27.0 °F - 21.0 °F 78% 30.42 in 10.0 mi Calm Calm - 0.00 in Snow Light Snow
12:32 PM 26.6 °F - 21.2 °F 80% 30.28 in 2.0 mi Calm Calm - 0.00 in Snow Light Snow
12:51 PM 27.0 °F 20.5 °F 23.0 °F 85% 30.41 in 1.2 mi SSE 5.8 mph - 0.00 in Snow Light Snow
12:57 PM 26.6 °F 22.6 °F 23.0 °F 86% 30.28 in 1.0 mi SE 3.5 mph - 0.01 in Snow Light Snow
1:07 PM 26.6 °F 20.0 °F 23.0 °F 86% 30.28 in 2.0 mi SSE 5.8 mph - 0.01 in Snow Light Snow
1:13 PM 28.4 °F 24.6 °F 24.8 °F 86% 30.28 in 3.0 mi SSE 3.5 mph - 0.01 in Snow Light Snow
1:23 PM 28.4 °F 23.3 °F 23.0 °F 80% 30.27 in 2.5 mi SE 4.6 mph - 0.01 in Snow Light Snow
1:30 PM 28.4 °F 24.6 °F 24.8 °F 86% 30.27 in 1.8 mi ESE 3.5 mph - 0.01 in Snow Light Snow
1:47 PM 28.4 °F 24.6 °F 24.8 °F 86% 30.27 in 1.0 mi SE 3.5 mph - 0.01 in Snow Light Snow
1:51 PM 28.0 °F 24.2 °F 24.1 °F 85% 30.40 in 1.2 mi SE 3.5 mph - 0.02 in Snow Light Snow
2:07 PM 28.4 °F 21.2 °F 24.8 °F 86% 30.27 in 1.0 mi SSE 6.9 mph - 0.00 in Snow Light Snow
2:15 PM 28.4 °F 20.4 °F 24.8 °F 86% 30.27 in 1.0 mi South 8.1 mph - 0.00 in Snow Light Snow
2:19 PM 28.4 °F 21.2 °F 24.8 °F 86% 30.27 in 1.2 mi SSE 6.9 mph - 0.01 in Snow Light Snow
2:23 PM 28.4 °F 19.7 °F 24.8 °F 86% 30.27 in 1.2 mi South 9.2 mph - 0.01 in Snow Light Snow
2:30 PM 28.4 °F 20.4 °F 24.8 °F 86% 30.26 in 1.5 mi SSE 8.1 mph - 0.01 in Snow Light Snow
2:36 PM 28.4 °F 19.1 °F 24.8 °F 86% 30.26 in 1.5 mi SSE 10.4 mph - 0.01 in Snow Light Snow
2:51 PM 28.0 °F 20.0 °F 25.0 °F 88% 30.39 in 2.0 mi SSE 8.1 mph - 0.01 in Snow Light Snow
3:00 PM 28.4 °F 20.4 °F 24.8 °F 86% 30.26 in 3.0 mi SSE 8.1 mph - 0.00 in Snow Light Snow
3:08 PM 28.4 °F 19.7 °F 24.8 °F 86% 30.26 in 3.0 mi SSE 9.2 mph - N/A Snow Light Snow
3:51 PM 28.0 °F 20.0 °F 25.0 °F 88% 30.39 in 6.0 mi South 8.1 mph - 0.00 in Snow Light Snow
4:01 PM 28.4 °F 21.2 °F 24.8 °F 86% 30.26 in 9.0 mi SE 6.9 mph - 0.00 in   Overcast
4:51 PM 28.9 °F 22.8 °F 25.0 °F 85% 30.38 in 10.0 mi SE 5.8 mph - 0.00 in   Overcast
5:51 PM 28.0 °F - 24.1 °F 85% 30.37 in 7.0 mi Calm Calm - 0.00 in Snow Light Snow
6:51 PM 28.0 °F - 25.0 °F 88% 30.37 in 3.0 mi Calm Calm - 0.01 in Snow Light Snow
6:56 PM 28.4 °F - 24.8 °F 86% 30.25 in 2.5 mi Calm Calm - 0.00 in Snow Light Snow
7:08 PM 28.4 °F - 24.8 °F 86% 30.26 in 3.0 mi Calm Calm - 0.01 in Snow Light Snow
7:41 PM 28.4 °F - 24.8 °F 86% 30.26 in 5.0 mi Calm Calm - 0.01 in Snow Light Snow
7:51 PM 28.0 °F - 25.0 °F 88% 30.38 in 4.0 mi Calm Calm - 0.01 in Snow Light Snow
7:57 PM 28.4 °F - 24.8 °F 86% 30.26 in 5.0 mi Calm Calm - 0.00 in Snow Light Snow
8:12 PM 28.4 °F - 24.8 °F 86% 30.26 in 2.0 mi Calm Calm - 0.00 in Snow Light Snow
8:27 PM 28.4 °F - 24.8 °F 86% 30.26 in 5.0 mi Calm Calm - 0.00 in Snow Light Snow
8:51 PM 27.0 °F - 25.0 °F 92% 30.38 in 4.0 mi Calm Calm - 0.01 in Snow Light Snow
9:51 PM 28.0 °F - 25.0 °F 88% 30.38 in 4.0 mi Calm Calm - 0.00 in Snow Light Snow
10:51 PM 28.0 °F - 25.0 °F 88% 30.38 in 10.0 mi Calm Calm - 0.00 in   Overcast
11:23 PM 28.4 °F - 26.6 °F 93% 30.28 in 10.0 mi Calm Calm - N/A   Overcast
11:51 PM 28.0 °F - 25.0 °F 88% 30.38 in 10.0 mi Calm Calm - N/A   Overcast